Montreal, Quebec

10:18 AM EDT on August 16, 2017 (GMT -0400)
Montreal-Pierre Elliott Trudeau Int'l Airport

Weather History for CYUL - February, 2014

Change the Weather History Date:

Wednesday, February 5, 2014

  Actual Average Record
Temperature  
Mean Temperature 14 °F -  
Max Temperature 17 °F 26 °F 41 °F (2006)
Min Temperature 6 °F 10 °F -7 °F (2007)
Degree Days  
Heating Degree Days 52    
Moisture  
Dew Point 9 °F    
Average Humidity 79    
Maximum Humidity 93    
Minimum Humidity 62    
Precipitation  
Precipitation 0.16 in 0.08 in - ()
Sea Level Pressure  
Sea Level Pressure 30.10 in    
Wind  
Wind Speed 9 mph ()    
Max Wind Speed 22 mph    
Max Gust Speed 26 mph    
Visibility 7.0 miles    
Events Snow    
Averages and records for this station are not official NWS values.
T = Trace of Precipitation, MM = Missing Value Source: Averaged Metar Reports

Daily Weather History Graph

Daily Weather History Graph

Search for Another Location

Airport or City:

Trip Planner

Search our weather history database for the weather conditions in past years. The results will help you decide how hot, cold, wet, or windy it might be!

Date:

Astronomy

Feb. 05, 2014 Rise Set
Actual Time 7:10 AM EST 5:07 PM EST
Civil Twilight 6:39 AM EST 5:38 PM EST
Nautical Twilight 6:04 AM EST 6:14 PM EST
Astronomical Twilight 5:30 AM EST 6:48 PM EST
Moon 10:03 AM EST (2/5) No Moon Set
Length of Visible Light 10h 59m
Length of Day
9h 56m
Waxing Crescent, 39% of the Moon is Illuminated
Feb 5
Waxing Crescent
Feb 6
First Quarter
Feb 14
Full
Feb 22
Last Quarter
Mar 1
New

Hourly Weather History & Observations

Time (EST) Temp. Windchill Dew Point Humidity Pressure Visibility Wind Dir Wind Speed Gust Speed Precip Events Conditions
12:00 AM 15.8 °F - 8.6 °F 73% 30.37 in 15.0 mi SW 2.3 mph - N/A   Overcast
1:00 AM 15 °F - 9 °F 69% 30.34 in 15 mi North 1.2 mph - -   Overcast
1:00 AM 15.8 °F - 8.6 °F 73% 30.34 in 15.0 mi Calm Calm - N/A   Overcast
2:00 AM 15.8 °F - 10.4 °F 79% 30.33 in 15.0 mi Calm Calm - N/A   Overcast
3:00 AM 15.8 °F - 10.4 °F 79% 30.31 in 15.0 mi Calm Calm - N/A   Overcast
4:00 AM 15.8 °F - 10.4 °F 79% 30.26 in 15.0 mi NNE 2.3 mph - N/A   Overcast
5:00 AM 15.8 °F - 10.4 °F 79% 30.27 in 15.0 mi NNW 2.3 mph - N/A   Overcast
6:00 AM 15.8 °F - 10.4 °F 79% 30.24 in 15.0 mi North 2.3 mph - N/A   Overcast
7:00 AM 16 °F - 10 °F 67% 30.24 in 15 mi NNE 9.2 mph - -   Overcast
7:00 AM 15.8 °F 4.2 °F 10.4 °F 79% 30.24 in 15.0 mi NNE 9.2 mph - N/A   Overcast
8:00 AM 17.6 °F 5.7 °F 10.4 °F 73% 30.22 in 12.0 mi NE 10.4 mph - N/A   Overcast
8:15 AM 17.6 °F 5.7 °F 10.4 °F 73% 30.21 in 12.0 mi NNE 10.4 mph - N/A Snow Light Snow
8:54 AM 15.8 °F -1.1 °F 10.4 °F 79% 30.18 in 2.5 mi NE 19.6 mph - N/A Snow Light Snow
9:00 AM 15.8 °F 0.9 °F 10.4 °F 79% 30.17 in 2.5 mi NE 15.0 mph 23.0 mph N/A Snow Light Snow
9:12 AM 15.8 °F -0.6 °F 10.4 °F 79% 30.16 in 2.0 mi NE 18.4 mph - N/A Snow Light Snow
10:00 AM 14.0 °F -3.9 °F 10.4 °F 86% 30.13 in 2.2 mi NNE 20.7 mph - N/A Snow Light Snow
10:28 AM 14.0 °F -3.0 °F 10.4 °F 86% 30.12 in 1.2 mi NNE 18.4 mph - N/A Snow Light Snow
11:00 AM 14.0 °F -4.3 °F 10.4 °F 86% 30.09 in 1.2 mi NE 21.9 mph - N/A Snow Light Snow
11:20 AM 14.0 °F -3.4 °F 10.4 °F 86% 30.06 in 2.0 mi NNE 19.6 mph - N/A Snow Light Snow
12:00 PM 15.8 °F -0.2 °F 10.4 °F 79% 30.02 in 1.2 mi NNE 17.3 mph 24.2 mph N/A Snow Light Snow
12:37 PM 14.0 °F -3.4 °F 10.4 °F 86% 29.98 in 1.0 mi NNE 19.6 mph - N/A Snow Light Snow
1:00 PM 15 °F - 11 °F 77% 29.96 in 1 mi NNE 18.4 mph - - Snow Light Snow
1:00 PM 14.0 °F -2.5 °F 10.4 °F 86% 29.96 in 1.2 mi NNE 17.3 mph 24.2 mph N/A Snow Light Snow
1:51 PM 14.0 °F -3.9 °F 10.4 °F 86% 29.95 in 1.0 mi NNE 20.7 mph - N/A Snow Light Snow
2:00 PM 14.0 °F -1.4 °F 10.4 °F 86% 29.95 in 1.0 mi NNE 15.0 mph 24.2 mph N/A Snow Light Snow
3:00 PM 14.0 °F 1.2 °F 12.2 °F 93% 29.94 in 0.8 mi NNE 10.4 mph - N/A Snow Light Snow
4:00 PM 14.0 °F -3.0 °F 10.4 °F 86% 29.93 in 1.2 mi North 18.4 mph 25.3 mph N/A Snow Light Snow
4:23 PM 14.0 °F -3.0 °F 10.4 °F 86% 29.92 in 1.0 mi North 18.4 mph 26.5 mph N/A Snow Light Snow
5:00 PM 14.0 °F -0.2 °F 10.4 °F 86% 29.95 in 1.0 mi North 12.7 mph 20.7 mph N/A Snow Light Snow
5:30 PM 14.0 °F 0.5 °F 10.4 °F 86% 29.98 in 1.5 mi North 11.5 mph - N/A Snow Light Snow
6:00 PM 14.0 °F -2.0 °F 10.4 °F 86% 29.99 in 1.0 mi North 16.1 mph - N/A Snow Light Snow
6:19 PM 14.0 °F -0.8 °F 10.4 °F 86% 29.99 in 1.5 mi North 13.8 mph - N/A Snow Light Snow
7:00 PM 14 °F - 11 °F 82% 29.99 in 3 mi North 11.5 mph - - Snow Light Snow
7:00 PM 14.0 °F 0.5 °F 10.4 °F 86% 29.99 in 3.0 mi North 11.5 mph - N/A Snow Light Snow
7:32 PM 14.0 °F -1.4 °F 8.6 °F 79% 30.01 in 4.0 mi North 15.0 mph - N/A Snow Light Snow
8:00 PM 14.0 °F 2.0 °F 5.0 °F 67% 30.02 in 15.0 mi North 9.2 mph - N/A Snow Low Drifting Snow
9:00 PM 12.2 °F -2.5 °F 1.4 °F 62% 30.06 in 15.0 mi North 12.7 mph - N/A Snow Low Drifting Snow
10:00 PM 10.4 °F -2.4 °F -0.4 °F 62% 30.09 in 15.0 mi North 9.2 mph - N/A   Scattered Clouds
11:00 PM 6.8 °F -4.8 °F -2.2 °F 67% 30.13 in 15.0 mi North 6.9 mph - N/A   Partly Cloudy